Time,TemperatureF,DewpointF,PressureIn,WindDirection,WindDirectionDegrees,WindSpeedMPH,WindSpeedGustMPH,Humidity,HourlyPrecipIn,Conditions,Clouds,dailyrainin,SoftwareType,DateUTC
2013-02-24 00:07:00,42.8,37.4,29.80,ESE,112,3.1,-999.0,81,-99.99,,,0.00,Acu-Link.com,2013-02-24 06:07:00,
2013-02-24 00:22:00,42.3,37.2,29.80,ESE,112,0.0,-999.0,82,-99.99,,,0.00,Acu-Link.com,2013-02-24 06:22:00,
2013-02-24 00:37:00,41.5,37.1,29.80,SSE,157,0.0,-999.0,84,-99.99,,,0.00,Acu-Link.com,2013-02-24 06:37:00,
2013-02-24 00:52:00,41.0,37.4,29.80,ESE,112,0.0,-999.0,87,-99.99,,,0.00,Acu-Link.com,2013-02-24 06:52:00,
2013-02-24 01:08:00,40.6,37.4,29.79,WNW,292,0.0,-999.0,88,-99.99,,,0.00,Acu-Link.com,2013-02-24 07:08:00,
2013-02-24 01:23:00,40.3,37.3,29.79,SSE,157,1.6,-999.0,89,-99.99,,,0.00,Acu-Link.com,2013-02-24 07:23:00,
2013-02-24 01:38:00,40.3,37.3,29.78,ESE,112,2.2,-999.0,89,-99.99,,,0.00,Acu-Link.com,2013-02-24 07:38:00,
2013-02-24 01:53:00,40.3,37.3,29.78,ESE,112,0.0,-999.0,89,-99.99,,,0.00,Acu-Link.com,2013-02-24 07:53:00,
2013-02-24 02:08:00,40.6,37.1,29.77,ESE,112,2.7,-999.0,87,-99.99,,,0.00,Acu-Link.com,2013-02-24 08:08:00,
2013-02-24 02:24:00,40.5,36.9,29.77,ENE,67,0.0,-999.0,87,-99.99,,,0.00,Acu-Link.com,2013-02-24 08:24:00,
2013-02-24 02:39:00,39.4,36.1,29.76,South,180,0.0,-999.0,88,-99.99,,,0.00,Acu-Link.com,2013-02-24 08:39:00,
2013-02-24 02:54:00,39.6,37.2,29.76,South,180,0.0,-999.0,91,-99.99,,,0.00,Acu-Link.com,2013-02-24 08:54:00,
2013-02-24 03:18:00,38.8,36.2,29.77,NNE,22,0.0,-999.0,90,-99.99,,,0.00,Acu-Link.com,2013-02-24 09:18:00,
2013-02-24 03:33:00,36.9,35.6,29.76,East,90,0.0,-999.0,95,-99.99,,,0.00,Acu-Link.com,2013-02-24 09:33:00,
2013-02-24 03:48:00,36.0,35.2,29.77,South,180,0.0,-999.0,97,-99.99,,,0.00,Acu-Link.com,2013-02-24 09:48:00,
2013-02-24 04:03:00,36.3,35.8,29.77,SSE,157,0.0,-999.0,98,-99.99,,,0.00,Acu-Link.com,2013-02-24 10:03:00,
2013-02-24 04:18:00,36.3,35.8,29.77,SE,135,0.0,-999.0,98,-99.99,,,0.00,Acu-Link.com,2013-02-24 10:18:00,
2013-02-24 04:34:00,36.1,35.6,29.76,SSE,157,0.0,-999.0,98,-99.99,,,0.00,Acu-Link.com,2013-02-24 10:34:00,
2013-02-24 04:49:00,35.4,34.9,29.76,ESE,112,0.0,-999.0,98,-99.99,,,0.00,Acu-Link.com,2013-02-24 10:49:00,
2013-02-24 05:04:00,34.5,34.0,29.76,ESE,112,0.0,-999.0,98,-99.99,,,0.00,Acu-Link.com,2013-02-24 11:04:00,
2013-02-24 05:19:00,34.2,33.7,29.76,ESE,112,0.0,-999.0,98,-99.99,,,0.00,Acu-Link.com,2013-02-24 11:19:00,
2013-02-24 05:34:00,33.4,32.9,29.77,ESE,112,0.0,-999.0,98,-99.99,,,0.00,Acu-Link.com,2013-02-24 11:34:00,
2013-02-24 05:50:00,33.4,32.9,29.76,ESE,112,0.0,-999.0,98,-99.99,,,0.00,Acu-Link.com,2013-02-24 11:50:00,
2013-02-24 06:05:00,33.3,32.8,29.76,ESE,112,0.0,-999.0,98,-99.99,,,0.00,Acu-Link.com,2013-02-24 12:05:00,
2013-02-24 06:20:00,33.1,32.6,29.76,South,180,0.0,-999.0,98,-99.99,,,0.00,Acu-Link.com,2013-02-24 12:20:00,
2013-02-24 06:35:00,34.0,33.5,29.76,ESE,112,0.0,-999.0,98,-99.99,,,0.00,Acu-Link.com,2013-02-24 12:35:00,
2013-02-24 06:50:00,35.8,35.3,29.75,SE,135,0.0,-999.0,98,-99.99,,,0.00,Acu-Link.com,2013-02-24 12:50:00,
2013-02-24 07:05:00,37.2,36.7,29.74,SE,135,2.2,-999.0,98,-99.99,,,0.00,Acu-Link.com,2013-02-24 13:05:00,
2013-02-24 07:21:00,38.1,37.6,29.74,SSE,157,2.2,-999.0,98,-99.99,,,0.00,Acu-Link.com,2013-02-24 13:21:00,
2013-02-24 07:36:00,39.7,39.2,29.75,South,180,1.6,-999.0,98,-99.99,,,0.00,Acu-Link.com,2013-02-24 13:36:00,
2013-02-24 07:51:00,41.0,40.5,29.76,SSE,157,2.2,-999.0,98,-99.99,,,0.00,Acu-Link.com,2013-02-24 13:51:00,
2013-02-24 08:06:00,42.6,42.1,29.76,South,180,3.1,-999.0,98,-99.99,,,0.00,Acu-Link.com,2013-02-24 14:06:00,
2013-02-24 08:21:00,45.1,44.3,29.77,SSW,202,3.8,-999.0,97,-99.99,,,0.00,Acu-Link.com,2013-02-24 14:21:00,
2013-02-24 08:37:00,47.3,45.4,29.76,SSE,157,8.3,-999.0,93,-99.99,,,0.00,Acu-Link.com,2013-02-24 14:37:00,
2013-02-24 08:52:00,50.0,47.2,29.76,SSE,157,8.3,-999.0,90,-99.99,,,0.00,Acu-Link.com,2013-02-24 14:52:00,
2013-02-24 09:07:00,52.2,47.5,29.77,ESE,112,4.3,-999.0,84,-99.99,,,0.00,Acu-Link.com,2013-02-24 15:07:00,
2013-02-24 09:22:00,53.6,47.9,29.76,ESE,112,3.1,-999.0,81,-99.99,,,0.00,Acu-Link.com,2013-02-24 15:22:00,
2013-02-24 09:37:00,55.4,47.6,29.76,South,180,8.9,-999.0,75,-99.99,,,0.00,Acu-Link.com,2013-02-24 15:37:00,
2013-02-24 09:53:00,57.6,48.6,29.76,South,180,6.7,-999.0,72,-99.99,,,0.00,Acu-Link.com,2013-02-24 15:53:00,
2013-02-24 10:08:00,58.1,47.6,29.75,ESE,112,7.4,-999.0,68,-99.99,,,0.00,Acu-Link.com,2013-02-24 16:08:00,
2013-02-24 10:23:00,59.4,47.6,29.75,South,180,10.3,-999.0,65,-99.99,,,0.00,Acu-Link.com,2013-02-24 16:23:00,
2013-02-24 10:38:00,59.9,47.7,29.75,ESE,112,12.5,-999.0,64,-99.99,,,0.00,Acu-Link.com,2013-02-24 16:38:00,
2013-02-24 10:54:00,62.1,48.5,29.74,SE,135,9.4,-999.0,61,-99.99,,,0.00,Acu-Link.com,2013-02-24 16:54:00,
2013-02-24 11:09:00,63.9,48.8,29.73,South,180,4.3,-999.0,58,-99.99,,,0.00,Acu-Link.com,2013-02-24 17:09:00,
2013-02-24 11:24:00,64.2,48.2,29.73,South,180,5.8,-999.0,56,-99.99,,,0.00,Acu-Link.com,2013-02-24 17:24:00,
2013-02-24 11:39:00,65.3,48.2,29.71,South,180,14.1,-999.0,54,-99.99,,,0.00,Acu-Link.com,2013-02-24 17:39:00,
2013-02-24 11:54:00,66.7,49.1,29.72,South,180,8.9,-999.0,53,-99.99,,,0.00,Acu-Link.com,2013-02-24 17:54:00,
2013-02-24 12:10:00,68.0,49.7,29.70,ESE,112,6.7,-999.0,52,-99.99,,,0.00,Acu-Link.com,2013-02-24 18:10:00,
2013-02-24 12:25:00,68.5,49.2,29.70,SSE,157,10.3,-999.0,50,-99.99,,,0.00,Acu-Link.com,2013-02-24 18:25:00,
2013-02-24 12:40:00,69.6,49.6,29.68,South,180,8.3,-999.0,49,-99.99,,,0.00,Acu-Link.com,2013-02-24 18:40:00,
2013-02-24 12:55:00,70.2,50.6,29.67,SSE,157,3.1,-999.0,50,-99.99,,,0.00,Acu-Link.com,2013-02-24 18:55:00,
2013-02-24 13:10:00,71.4,51.3,29.67,South,180,9.4,-999.0,49,-99.99,,,0.00,Acu-Link.com,2013-02-24 19:10:00,
2013-02-24 13:26:00,70.3,50.8,29.65,ESE,112,3.8,-999.0,50,-99.99,,,0.00,Acu-Link.com,2013-02-24 19:26:00,
2013-02-24 13:41:00,70.7,51.1,29.64,SSE,157,6.7,-999.0,50,-99.99,,,0.00,Acu-Link.com,2013-02-24 19:41:00,
2013-02-24 13:56:00,72.0,51.7,29.63,SSW,202,8.3,-999.0,49,-99.99,,,0.00,Acu-Link.com,2013-02-24 19:56:00,
2013-02-24 14:11:00,73.6,52.7,29.62,SSE,157,3.1,-999.0,48,-99.99,,,0.00,Acu-Link.com,2013-02-24 20:11:00,
2013-02-24 14:26:00,73.9,52.4,29.60,ESE,112,6.7,-999.0,47,-99.99,,,0.00,Acu-Link.com,2013-02-24 20:26:00,
2013-02-24 14:42:00,73.4,51.3,29.59,ESE,112,7.4,-999.0,46,-99.99,,,0.00,Acu-Link.com,2013-02-24 20:42:00,
2013-02-24 14:57:00,74.1,52.6,29.58,SSE,157,5.8,-999.0,47,-99.99,,,0.00,Acu-Link.com,2013-02-24 20:57:00,
2013-02-24 15:12:00,75.0,52.8,29.58,SSW,202,4.7,-999.0,46,-99.99,,,0.00,Acu-Link.com,2013-02-24 21:12:00,
2013-02-24 15:27:00,74.7,52.5,29.57,SSE,157,7.8,-999.0,46,-99.99,,,0.00,Acu-Link.com,2013-02-24 21:27:00,
2013-02-24 15:43:00,75.2,52.4,29.55,SSE,157,8.9,-999.0,45,-99.99,,,0.00,Acu-Link.com,2013-02-24 21:43:00,
2013-02-24 15:58:00,74.8,52.7,29.55,West,270,4.3,-999.0,46,-99.99,,,0.00,Acu-Link.com,2013-02-24 21:58:00,
2013-02-24 16:13:00,74.7,52.5,29.55,ESE,112,4.3,-999.0,46,-99.99,,,0.00,Acu-Link.com,2013-02-24 22:13:00,
2013-02-24 16:28:00,73.8,52.8,29.54,ESE,112,3.8,-999.0,48,-99.99,,,0.00,Acu-Link.com,2013-02-24 22:28:00,
2013-02-24 16:43:00,73.2,52.9,29.54,ESE,112,7.8,-999.0,49,-99.99,,,0.00,Acu-Link.com,2013-02-24 22:43:00,
2013-02-24 16:59:00,72.5,53.3,29.53,SSE,157,3.1,-999.0,51,-99.99,,,0.00,Acu-Link.com,2013-02-24 22:59:00,
2013-02-24 17:14:00,72.0,53.4,29.53,SSE,157,5.1,-999.0,52,-99.99,,,0.00,Acu-Link.com,2013-02-24 23:14:00,
2013-02-24 17:29:00,71.4,53.9,29.53,ESE,112,5.8,-999.0,54,-99.99,,,0.00,Acu-Link.com,2013-02-24 23:29:00,
2013-02-24 17:44:00,70.5,53.6,29.52,ESE,112,2.7,-999.0,55,-99.99,,,0.00,Acu-Link.com,2013-02-24 23:44:00,
2013-02-24 17:59:00,69.4,53.1,29.52,NE,45,4.7,-999.0,56,-99.99,,,0.00,Acu-Link.com,2013-02-24 23:59:00,
2013-02-24 18:15:00,68.7,53.3,29.52,SSE,157,8.3,-999.0,58,-99.99,,,0.00,Acu-Link.com,2013-02-25 00:15:00,
2013-02-24 18:30:00,67.5,52.6,29.52,South,180,5.1,-999.0,59,-99.99,,,0.00,Acu-Link.com,2013-02-25 00:30:00,
2013-02-24 18:45:00,66.4,53.0,29.53,SSE,157,6.3,-999.0,62,-99.99,,,0.00,Acu-Link.com,2013-02-25 00:45:00,
2013-02-24 19:00:00,65.7,52.7,29.54,SSE,157,3.8,-999.0,63,-99.99,,,0.00,Acu-Link.com,2013-02-25 01:00:00,
2013-02-24 19:15:00,65.3,52.8,29.54,SSE,157,7.4,-999.0,64,-99.99,,,0.00,Acu-Link.com,2013-02-25 01:15:00,
2013-02-24 19:31:00,64.6,53.4,29.54,SE,135,3.1,-999.0,67,-99.99,,,0.00,Acu-Link.com,2013-02-25 01:31:00,
2013-02-24 19:46:00,63.5,53.5,29.54,East,90,3.1,-999.0,70,-99.99,,,0.00,Acu-Link.com,2013-02-25 01:46:00,
2013-02-24 20:01:00,62.6,53.8,29.55,ESE,112,4.3,-999.0,73,-99.99,,,0.00,Acu-Link.com,2013-02-25 02:01:00,
2013-02-24 20:16:00,61.7,54.1,29.53,South,180,0.0,-999.0,76,-99.99,,,0.00,Acu-Link.com,2013-02-25 02:16:00,
2013-02-24 20:32:00,61.2,54.6,29.53,SE,135,2.7,-999.0,79,-99.99,,,0.00,Acu-Link.com,2013-02-25 02:32:00,
2013-02-24 20:47:00,60.8,55.3,29.52,SSE,157,3.8,-999.0,82,-99.99,,,0.00,Acu-Link.com,2013-02-25 02:47:00,
2013-02-24 21:02:00,60.8,56.3,29.51,East,90,5.1,-999.0,85,-99.99,,,0.00,Acu-Link.com,2013-02-25 03:02:00,
2013-02-24 21:17:00,60.6,57.0,29.51,SSE,157,6.7,-999.0,88,-99.99,,,0.00,Acu-Link.com,2013-02-25 03:17:00,
2013-02-24 21:32:00,60.1,58.0,29.50,ENE,67,3.1,-999.0,93,-99.99,,,0.00,Acu-Link.com,2013-02-25 03:32:00,
2013-02-24 21:48:00,60.1,59.5,29.49,SSE,157,4.3,-999.0,98,-99.99,,,0.00,Acu-Link.com,2013-02-25 03:48:00,
2013-02-24 22:03:00,60.4,59.9,29.47,SE,135,6.3,-999.0,98,-99.99,,,0.00,Acu-Link.com,2013-02-25 04:03:00,
2013-02-24 22:18:00,60.8,60.2,29.49,South,180,3.8,-999.0,98,-99.99,,,0.00,Acu-Link.com,2013-02-25 04:18:00,
2013-02-24 22:33:00,61.0,60.4,29.48,SE,135,3.1,-999.0,98,-99.99,,,0.00,Acu-Link.com,2013-02-25 04:33:00,
2013-02-24 22:48:00,61.0,60.4,29.47,SE,135,4.7,-999.0,98,-99.99,,,0.00,Acu-Link.com,2013-02-25 04:48:00,
2013-02-24 23:04:00,60.4,59.9,29.46,South,180,3.8,-999.0,98,-99.99,,,0.00,Acu-Link.com,2013-02-25 05:04:00,
2013-02-24 23:19:00,60.4,59.9,29.47,SSE,157,5.8,-999.0,98,-99.99,,,0.00,Acu-Link.com,2013-02-25 05:19:00,
2013-02-24 23:34:00,60.6,60.1,29.46,East,90,3.1,-999.0,98,-99.99,,,0.00,Acu-Link.com,2013-02-25 05:34:00,
2013-02-24 23:49:00,60.8,60.2,29.45,South,180,4.7,-999.0,98,-99.99,,,0.00,Acu-Link.com,2013-02-25 05:49:00,